#timestamp,LO_Frequency,Hit 
1501459215.0,286047002.5,N
1501459215.9,286047002.5,N
1501459235.7,286047000.7,N
1501459255.6,286047001.7,N
1501459275.4,286047004.2,N
1501459295.2,286047003.8,N
1501459315.1,286047006.0,N
1501459316.0,286047006.0,N
1501459335.8,286047005.5,N
1501459355.6,286047002.3,N
1501459375.5,286046999.5,N
1501459395.3,286046995.4,N
1501459415.1,286046993.5,N
1501459435.9,286046993.4,N
1501459455.7,286046991.7,N
1501459475.5,286046992.5,N
1501459495.3,286046991.7,N
1501459515.2,286046991.8,N
1501459535.0,286046990.5,N
1501459535.9,286046990.5,N
1501459555.7,286046992.0,N
1501459575.6,286046990.1,N
1501459595.4,286046990.4,N
1501459615.2,286046994.7,N
1501459635.1,286046994.4,N
1501459636.0,286046994.4,N
1501459655.8,286046994.0,N
1501459675.6,286046995.8,N
1501459695.5,286046995.7,N
1501459715.3,286046995.9,N
1501459735.1,286046994.1,N
1501459755.9,286046994.7,N
1501459775.7,286046996.4,N
1501459795.5,286046995.8,N
1501459815.3,286046997.5,N
1501459835.2,286046995.1,N
1501459855.0,286046995.9,N
1501459855.9,286046995.9,N
1501459875.7,286046993.7,N
1501459895.6,286046995.5,N
1501459915.4,286046998.0,N
1501459935.2,286046995.2,N
1501459955.1,286046993.7,N
1501459956.0,286046993.7,N
1501459975.8,286046995.9,N
1501459995.6,286046994.4,N
1501460015.5,286046993.0,N
1501460035.3,286046992.2,N
1501460055.1,286046994.9,N
1501460075.9,286046999.6,N
1501460095.7,286046998.6,N
1501460115.5,286047000.6,N
1501460135.4,286046998.5,N
1501460155.2,286047004.2,N
1501460175.0,286047003.6,N
1501460175.9,286047003.6,N
1501460195.7,286047003.9,N
1501460215.6,286047005.7,N
1501460235.4,286047004.6,N
1501460255.2,286047003.0,N
1501460275.1,286047004.8,N
1501460276.0,286047004.8,N
1501460295.8,286047005.6,N
1501460315.6,286047004.0,N
1501460335.5,286047002.7,N
1501460355.3,286047000.1,N
1501460375.1,286047002.2,N
1501460395.9,286047002.0,N
1501460415.7,286047000.3,N
1501460435.5,286047001.2,N
1501460455.3,286046999.7,N
1501460475.2,286047001.6,N
1501460495.9,286047002.8,N
1501460515.7,286046999.8,N
1501460535.6,286047000.8,N
1501460555.4,286047000.4,N
1501460575.2,286047000.6,N
1501460595.1,286047000.3,N
1501460596.0,286047000.3,N
1501460615.8,286047001.0,N
1501460635.6,286047000.3,N
1501460655.5,286047000.5,N
1501460675.3,286047002.3,N
1501460695.1,286047002.8,N
1501460715.8,286047003.9,N
1501460735.7,286047003.8,N
1501460755.5,286047004.3,N
1501460775.3,286047004.1,N
1501460795.2,286047004.1,N
1501460815.9,286047005.9,N
1501460835.7,286047007.5,N
1501460855.6,286047005.6,N
1501460875.4,286047006.0,N
1501460895.2,286047003.4,N
1501460915.1,286047004.5,N
1501460916.0,286047004.5,N
1501460935.8,286047007.3,N
1501460955.6,286047006.6,N
1501460975.4,286047008.6,N
1501460995.3,286047008.1,N
1501461015.1,286047008.0,N
1501461035.8,286047009.0,N
1501461055.7,286047008.9,N
1501461075.5,286047009.0,N
1501461095.3,286047007.0,N
1501461115.2,286047004.5,N
1501461135.9,286047006.9,N
1501461155.7,286047007.5,N
1501461175.6,286047003.7,N
1501461195.4,286047003.4,N
1501461215.2,286047005.6,N
1501461235.1,286047005.2,N
1501461236.0,286047005.2,N
1501461255.8,286047007.0,N
1501461275.6,286047005.2,N
1501461295.5,286047005.2,N
1501461315.3,286047004.7,N
1501461335.2,286047004.7,N
1501461355.9,286047004.8,N
1501461375.7,286047004.5,N
1501461395.6,286047007.6,N
1501461415.4,286047005.7,N
1501461435.2,286047007.2,N
1501461455.1,286047006.8,N
1501461456.0,286047006.8,N
1501461475.8,286047006.8,N
1501461495.6,286047006.7,N
1501461515.4,286047006.4,N
1501461535.3,286047006.8,N
1501461555.1,286047006.8,N
1501461575.8,286047008.2,N
1501461595.7,286047010.8,N
1501461615.5,286047010.7,N
1501461635.3,286047007.7,N
1501461655.2,286047010.7,N
1501461675.9,286047009.0,N
1501461695.7,286047006.7,N
1501461715.6,286047006.8,N
1501461735.4,286047006.3,N
1501461755.2,286047006.9,N
1501461775.0,286047004.7,N
1501461775.9,286047004.7,N
1501461795.8,286047005.7,N
1501461815.6,286047005.2,N
1501461835.4,286047003.6,N
1501461855.3,286047006.0,N
1501461875.1,286047007.0,N
1501461895.8,286047008.9,N
1501461915.7,286047008.7,N
1501461935.5,286047009.1,N
1501461955.3,286047007.1,N
1501461975.2,286047005.6,N
1501461995.9,286047008.9,N
1501462015.7,286047010.1,N
1501462035.5,286047011.1,N
1501462055.4,286047015.3,N
1501462075.2,286047015.9,N
1501462095.0,286047016.0,N
1501462095.9,286047016.0,N
1501462115.8,286047016.5,N
1501462135.6,286047017.5,N
1501462155.4,286047018.1,N
1501462175.3,286047016.4,N
1501462195.1,286047015.7,N
1501462196.0,286047015.7,N
1501462215.8,286047017.9,N
1501462235.7,286047020.3,N
1501462255.5,286047021.7,N
1501462275.3,286047017.3,N
1501462295.1,286047019.4,N
1501462315.9,286047019.3,N
1501462335.7,286047020.7,N
1501462355.5,286047024.6,N
1501462375.4,286047024.9,N
1501462395.2,286047020.5,N
1501462415.0,286047022.2,N
1501462415.9,286047022.2,N
1501462435.8,286047026.4,N
1501462455.6,286047024.0,N
1501462475.4,286047026.8,N
1501462495.3,286047024.7,N
1501462515.1,286047026.2,N
1501462516.0,286047026.2,N
1501462535.8,286047022.1,N
1501462555.7,286047022.5,N
1501462575.5,286047024.4,N
1501462595.3,286047026.8,N
1501462615.1,286047023.0,N
1501462635.9,286047023.1,N
1501462655.7,286047024.1,N
1501462675.5,286047022.2,N
1501462695.4,286047023.4,N
1501462715.2,286047023.4,N
1501462735.0,286047020.7,N
1501462735.9,286047020.7,N
1501462755.8,286047020.7,N
1501462775.6,286047023.3,N
1501462795.4,286047021.8,N
